GAOFEN-12 02

Last updated on Tue Oct 21 2025 00:02:32 GMT+0000 (Coordinated Universal Time)

1 48079U 21026A 25293.62312959 .00001009 00000+0 13848-3 0 9993 2 48079 97.9835 287.8916 0000871 305.9521 54.1610 14.80579215246318
UTC large
Height (km)
Speed (km/s)
/
Latitude / Longitude
Inclination (degrees)
Orbital Period (minutes)
Azimuth
Elevation
Range (km)
Doppler Factor

Next 0 passes for location: London (51.5072 / 0.1276)

Sorry there are no passes over London.